Weather History for KLNS - December, 2013

Change the Weather History Date:

Saturday, December 28, 2013

  Actual Average Record
Temperature  
Mean Temperature 40 °F -  
Max Temperature 55 °F 37 °F 64 °F (2008)
Min Temperature 24 °F 24 °F 12 °F (2004)
Degree Days  
Heating Degree Days 26    
Moisture  
Dew Point 24 °F    
Average Humidity 62    
Maximum Humidity 88    
Minimum Humidity 31    
Precipitation  
Precipitation 0.00 in - - ()
Sea Level Pressure  
Sea Level Pressure 30.20 in    
Wind  
Wind Speed 2 mph (SW)    
Max Wind Speed 15 mph    
Max Gust Speed 22 mph    
Visibility 8 miles    
Events      
Averages and records for this station are not official NWS values.
T = Trace of Precipitation, MM = Missing Value Source: NWS Daily Summary

Daily Weather History Graph

Daily Weather History Graph

Search for Another Location

Airport or City:

Trip Planner

Search our weather history database for the weather conditions in past years. The results will help you decide how hot, cold, wet, or windy it might be!

Date:

Astronomy

Dec. 28, 2013 Rise Set
Actual Time 7:26 AM EST 4:47 PM EST
Civil Twilight 6:56 AM EST 5:17 PM EST
Nautical Twilight 6:21 AM EST 5:51 PM EST
Astronomical Twilight 5:48 AM EST 6:24 PM EST
Moon 3:01 AM EST (12/28) 1:36 PM EST (12/28)
Length of Visible Light 10h 21m
Length of Day
9h 20m
Waning Crescent, 19% of the Moon is Illuminated
Dec 28
Waning Crescent
Jan 1
New
Jan 7
First Quarter
Jan 15
Full
Jan 24
Last Quarter

Hourly Weather History & Observations

Time (EST) Temp. Windchill Dew Point Humidity Pressure Visibility Wind Dir Wind Speed Gust Speed Precip Events Conditions
12:53 AM 28.9 °F - 23.0 °F 78% 30.30 in 7.0 mi Calm Calm - N/A   Clear
1:53 AM 28.0 °F - 21.9 °F 78% 30.30 in 7.0 mi Calm Calm - N/A   Clear
2:53 AM 26.1 °F - 21.0 °F 81% 30.28 in 6.0 mi Calm Calm - N/A   Haze
3:53 AM 25.0 °F - 21.9 °F 88% 30.26 in 6.0 mi Calm Calm - N/A   Clear
4:53 AM 24.1 °F - 21.0 °F 88% 30.25 in 6.0 mi Calm Calm - N/A   Clear
5:53 AM 24.1 °F - 21.0 °F 88% 30.25 in 6.0 mi Calm Calm - N/A   Clear
6:53 AM 24.1 °F - 19.9 °F 84% 30.27 in 6.0 mi Calm Calm - N/A   Clear
7:53 AM 27.0 °F - 21.9 °F 81% 30.27 in 6.0 mi Calm Calm - N/A   Haze
8:35 AM 28.4 °F - 24.8 °F 86% 30.25 in 2.0 mi Calm Calm - N/A   Mostly Cloudy
8:53 AM 30.0 °F - 25.0 °F 82% 30.27 in 6.0 mi Calm Calm - N/A   Haze
9:53 AM 37.9 °F - 28.0 °F 68% 30.26 in 7.0 mi Calm Calm - N/A   Clear
10:53 AM 46.9 °F - 28.9 °F 50% 30.23 in 10.0 mi West 3.5 mph - N/A   Clear
11:53 AM 51.1 °F - 24.1 °F 35% 30.19 in 10.0 mi WSW 15.0 mph 19.6 mph N/A   Clear
12:53 PM 53.1 °F - 26.1 °F 35% 30.15 in 10.0 mi West 9.2 mph - N/A   Clear
1:53 PM 54.0 °F - 24.1 °F 31% 30.13 in 10.0 mi WSW 13.8 mph 21.9 mph N/A   Clear
2:53 PM 55.0 °F - 25.0 °F 31% 30.12 in 10.0 mi SW 12.7 mph - N/A   Clear
3:53 PM 53.1 °F - 24.1 °F 32% 30.13 in 10.0 mi WSW 9.2 mph - N/A   Clear
4:53 PM 48.9 °F - 24.1 °F 38% 30.14 in 10.0 mi SW 5.8 mph - N/A   Clear
5:53 PM 48.0 °F - 24.1 °F 39% 30.14 in 10.0 mi SW 3.5 mph - N/A   Clear
6:53 PM 44.1 °F - 24.1 °F 45% 30.15 in 10.0 mi Calm Calm - N/A   Clear
7:53 PM 45.0 °F - 24.1 °F 44% 30.15 in 10.0 mi Calm Calm - N/A   Clear
8:53 PM 37.9 °F - 25.0 °F 60% 30.14 in 10.0 mi Calm Calm - N/A   Clear
9:53 PM 35.1 °F 32.2 °F 26.1 °F 70% 30.12 in 10.0 mi East 3.5 mph - N/A   Clear
10:53 PM 37.9 °F 35.5 °F 26.1 °F 62% 30.12 in 10.0 mi East 3.5 mph - N/A   Clear
11:53 PM 36.0 °F 33.3 °F 27.0 °F 70% 30.10 in 10.0 mi ESE 3.5 mph - N/A   Clear